Tiempo cada hora Bartlomiejowice

Hoy, 28 Febrero, Domingo

Tiempo Temperatura Precipitaciones Viento Presión Humedad
00:00 0°C° 0 mm 3 mps 767 mmHg 87%
01:00 -1°C° 0 mm 2 mps 767 mmHg 90%
02:00 0°C° 0 mm 3 mps 767 mmHg 88%
03:00 0°C° 0 mm 3 mps 766 mmHg 86%
04:00 0°C° 0 mm 3 mps 766 mmHg 84%
05:00 -1°C° 0 mm 4 mps 766 mmHg 87%
06:00 -1°C° 0 mm 4 mps 766 mmHg 91%
07:00 -1°C° 0 mm 4 mps 766 mmHg 95%
08:00 -1°C° 0 mm 5 mps 766 mmHg 94%
09:00 0°C° 0 mm 5 mps 766 mmHg 92%
10:00 +1°C° 0 mm 6 mps 766 mmHg 91%
11:00 +1°C° 0 mm 6 mps 765 mmHg 90%
12:00 +1°C° 0 mm 6 mps 765 mmHg 89%
13:00 +2°C° 0 mm 6 mps 765 mmHg 89%
14:00 +2°C° 0 mm 6 mps 765 mmHg 88%
15:00 +2°C° 0 mm 5 mps 765 mmHg 87%
16:00 +2°C° 0 mm 5 mps 765 mmHg 87%
17:00 +2°C° 0 mm 5 mps 765 mmHg 88%
18:00 +3°C° 0 mm 4 mps 765 mmHg 89%
19:00 +1°C° 0 mm 4 mps 765 mmHg 90%
20:00 +1°C° 0 mm 4 mps 765 mmHg 91%
21:00 +1°C° 0 mm 3 mps 765 mmHg 93%
22:00 0°C° 0 mm 3 mps 766 mmHg 94%
23:00 0°C° 0 mm 3 mps 766 mmHg 94%

Mañana, 1 Marzo, Lunes

Tiempo Temperatura Precipitaciones Viento Presión Humedad
00:00 0°C° 0 mm 3 mps 766 mmHg 94%
01:00 -1°C° 0 mm 2 mps 767 mmHg 95%
02:00 +1°C° 0 mm 2 mps 767 mmHg 94%
03:00 +1°C° 0 mm 2 mps 766 mmHg 93%
04:00 +1°C° 0 mm 2 mps 766 mmHg 92%
05:00 +2°C° 0 mm 1 mps 767 mmHg 92%
06:00 +2°C° 0 mm 1 mps 767 mmHg 92%
07:00 +2°C° 0 mm 1 mps 767 mmHg 91%
08:00 +3°C° 0 mm 1 mps 767 mmHg 85%
09:00 +4°C° 0 mm 2 mps 767 mmHg 79%
10:00 +5°C° 0 mm 2 mps 767 mmHg 74%
11:00 +6°C° 0 mm 2 mps 767 mmHg 70%
12:00 +8°C° 0 mm 2 mps 767 mmHg 67%
13:00 +9°C° 0 mm 3 mps 767 mmHg 64%
14:00 +9°C° 0 mm 3 mps 767 mmHg 66%
15:00 +8°C° 0 mm 3 mps 767 mmHg 68%
16:00 +8°C° 0 mm 3 mps 766 mmHg 70%
17:00 +7°C° 0 mm 3 mps 766 mmHg 75%
18:00 +5°C° 0 mm 3 mps 766 mmHg 81%
19:00 +4°C° 0 mm 3 mps 766 mmHg 86%
20:00 +3°C° 0 mm 3 mps 766 mmHg 87%
21:00 +3°C° 0 mm 3 mps 766 mmHg 88%
22:00 +2°C° 0 mm 3 mps 766 mmHg 89%
23:00 +2°C° 0 mm 3 mps 766 mmHg 89%

Pasado mañana, 2 Marzo, Martes

Tiempo Temperatura Precipitaciones Viento Presión Humedad
00:00 +2°C° 0 mm 3 mps 766 mmHg 89%
01:00 +1°C° 0 mm 3 mps 766 mmHg 90%
02:00 +1°C° 0 mm 3 mps 766 mmHg 90%
03:00 +1°C° 0 mm 3 mps 765 mmHg 90%
04:00 0°C° 0 mm 3 mps 765 mmHg 90%
05:00 -1°C° 0 mm 4 mps 765 mmHg 90%
06:00 -1°C° 0 mm 4 mps 765 mmHg 90%
07:00 -1°C° 0 mm 4 mps 765 mmHg 91%
08:00 +1°C° 0 mm 4 mps 765 mmHg 85%
09:00 +2°C° 0 mm 5 mps 765 mmHg 80%
10:00 +5°C° 0 mm 5 mps 765 mmHg 75%
11:00 +6°C° 0 mm 5 mps 765 mmHg 71%
12:00 +7°C° 0 mm 5 mps 765 mmHg 67%
13:00 +8°C° 0 mm 5 mps 765 mmHg 63%
14:00 +8°C° 0 mm 4 mps 765 mmHg 64%
15:00 +8°C° 0 mm 4 mps 765 mmHg 64%
16:00 +9°C° 0 mm 3 mps 765 mmHg 65%
17:00 +8°C° 0 mm 3 mps 765 mmHg 71%
18:00 +7°C° 0 mm 3 mps 765 mmHg 76%
19:00 +5°C° 0 mm 2 mps 765 mmHg 82%
20:00 +5°C° 0 mm 2 mps 765 mmHg 84%
21:00 +4°C° 0 mm 2 mps 765 mmHg 86%
22:00 +3°C° 0 mm 2 mps 765 mmHg 88%
23:00 +4°C° 0 mm 1 mps 766 mmHg 89%

3 Marzo, Miércoles

Tiempo Temperatura Precipitaciones Viento Presión Humedad
00:00 +4°C° 0 mm 1 mps 766 mmHg 90%
01:00 +3°C° 0 mm 1 mps 766 mmHg 91%
02:00 +2°C° 0 mm 0 mps 765 mmHg 91%
03:00 +1°C° 0 mm 0 mps 765 mmHg 92%
04:00 +1°C° 0 mm 0 mps 765 mmHg 92%
05:00 +1°C° 0 mm 0 mps 764 mmHg 92%
06:00 +2°C° 0 mm 1 mps 764 mmHg 92%
07:00 +2°C° 0 mm 1 mps 764 mmHg 92%
08:00 +4°C° 0 mm 1 mps 764 mmHg 85%
09:00 +5°C° 0 mm 1 mps 764 mmHg 78%
10:00 +7°C° 0 mm 1 mps 764 mmHg 71%
11:00 +7°C° 0 mm 2 mps 763 mmHg 65%
12:00 +8°C° 0 mm 2 mps 763 mmHg 60%
13:00 +9°C° 0 mm 2 mps 762 mmHg 55%
14:00 +9°C° 0 mm 2 mps 762 mmHg 56%
15:00 +9°C° 0 mm 2 mps 761 mmHg 58%
16:00 +9°C° 0 mm 2 mps 760 mmHg 59%
17:00 +8°C° 0 mm 2 mps 760 mmHg 64%
18:00 +7°C° 0 mm 2 mps 759 mmHg 68%
19:00 +5°C° 0 mm 2 mps 759 mmHg 72%
20:00 +5°C° 0 mm 2 mps 759 mmHg 74%
21:00 +4°C° 0 mm 2 mps 758 mmHg 75%
22:00 +4°C° 0 mm 2 mps 758 mmHg 77%
23:00 +4°C° 0 mm 2 mps 757 mmHg 79%

4 Marzo, Jueves

Tiempo Temperatura Precipitaciones Viento Presión Humedad
00:00 +2°C° 0 mm 3 mps 757 mmHg 82%
01:00 +2°C° 0 mm 3 mps 756 mmHg 85%
02:00 +2°C° 0 mm 3 mps 755 mmHg 86%
03:00 +2°C° 0 mm 3 mps 755 mmHg 88%
04:00 +1°C° 0 mm 3 mps 754 mmHg 90%
05:00 +1°C° 0 mm 3 mps 754 mmHg 91%
06:00 +1°C° 0 mm 3 mps 753 mmHg 93%
07:00 +1°C° 0 mm 3 mps 753 mmHg 94%
08:00 +1°C° 0 mm 4 mps 753 mmHg 90%
09:00 +4°C° 0 mm 4 mps 752 mmHg 85%
10:00 +5°C° 0 mm 4 mps 752 mmHg 81%
11:00 +6°C° 0 mm 4 mps 752 mmHg 77%
12:00 +7°C° 0 mm 5 mps 751 mmHg 73%
13:00 +8°C° 0 mm 5 mps 751 mmHg 69%
14:00 +8°C° 0 mm 4 mps 751 mmHg 70%
15:00 +7°C° 0 mm 4 mps 750 mmHg 72%
16:00 +7°C° 0 mm 4 mps 750 mmHg 73%
17:00 +6°C° 0.3 mm 4 mps 750 mmHg 77%
18:00 +5°C° 0.3 mm 3 mps 750 mmHg 82%
19:00 +4°C° 0.3 mm 3 mps 750 mmHg 87%
20:00 +3°C° 0.5 mm 4 mps 750 mmHg 89%
21:00 +1°C° 0.5 mm 5 mps 750 mmHg 92%
22:00 0°C° 0.5 mm 5 mps 750 mmHg 94%
23:00 -1°C° 0.2 mm 5 mps 751 mmHg 90%

5 Marzo, Viernes

Tiempo Temperatura Precipitaciones Viento Presión Humedad
00:00 -1°C° 0.2 mm 5 mps 751 mmHg 85%
01:00 -2°C° 0.2 mm 5 mps 751 mmHg 81%
02:00 -2°C° 0.1 mm 5 mps 751 mmHg 78%
03:00 -2°C° 0.1 mm 5 mps 752 mmHg 76%
04:00 -4°C° 0.1 mm 5 mps 752 mmHg 73%
05:00 -4°C° 0 mm 5 mps 753 mmHg 72%
06:00 -4°C° 0 mm 5 mps 753 mmHg 71%
07:00 -4°C° 0 mm 5 mps 754 mmHg 70%
08:00 -4°C° 0 mm 5 mps 755 mmHg 65%
09:00 -3°C° 0 mm 6 mps 755 mmHg 59%
10:00 -3°C° 0 mm 6 mps 756 mmHg 54%
11:00 -3°C° 0 mm 6 mps 756 mmHg 51%
12:00 -2°C° 0 mm 6 mps 756 mmHg 48%
13:00 -1°C° 0 mm 5 mps 757 mmHg 45%
14:00 -1°C° 0 mm 5 mps 757 mmHg 46%
15:00 -1°C° 0 mm 5 mps 757 mmHg 48%
16:00 -1°C° 0 mm 5 mps 758 mmHg 49%
17:00 -2°C° 0 mm 4 mps 758 mmHg 54%
18:00 -3°C° 0 mm 4 mps 759 mmHg 59%
19:00 -4°C° 0 mm 3 mps 759 mmHg 63%
20:00 -4°C° 0 mm 3 mps 760 mmHg 65%
21:00 -4°C° 0 mm 3 mps 760 mmHg 66%
22:00 -5°C° 0 mm 3 mps 761 mmHg 67%
23:00 -5°C° 0 mm 3 mps 761 mmHg 67%
Mostrar más

Necesitamos Su Consentimiento

Meteoprog y nuestros Proveedores de Servicios pueden almacenar y acceder a sus datos personales como cookies, identificadores de dispositivo u otras tecnologías similares de su dispositivo y procesar dichos datos para personalizar contenido y anuncios, además de ofrecer funciones de redes sociales y analizar el tráfico.

  • Almacenar y/o acceder a información en su dispositivo

    Se puede almacenar o acceder a cookies, identificadores de dispositivo u otra información de su dispositivo para los fines anteriormente indicados.

  • Anuncios y contenido personalizados, medición de anuncios y contenido, percepciones del público, y desarrollo de productos

    Los anuncios y el contenido pueden personalizarse en base a su perfil. Se pueden añadir más datos para personalizar mejor los anuncios y contenidos. Se puede medir el rendimiento de los anuncios y contenidos. Se puede obtener la percepción sobre el público que ha visto los anuncios y contenidos. Dichos datos pueden usarse para desarrollar o mejorar la experiencia del usuario, sistemas y software.

Al hacer clic en ‘Estoy De Acuerdo’ usted permitirá el uso de las cookies, identificadores de dispositivo, balizas web u otras tecnologías similares indicadas. Su configuración puede cambiarse desde el navegador de su dispositivo.

Para ciertos fines, los intereses legítimos pueden ser considerados por encima del consentimiento. Puede leer más sobre ello en nuestra Política de Privacidad y Cookies.